#timestamp,LO_Frequency,Hit,StdDev 
1577782815.0,286046996.9,N
1577782815.9,286046996.9,N
1577782835.7,286046999.1,N
1577782855.6,286046999.3,N
1577782875.4,286046997.5,N
1577782895.3,286046995.4,Y
1577782915.1,286046999.5,P
1577782916.0,286046999.5,N
1577782935.8,286046996.7,P
1577782955.7,286046996.7,N
1577782975.5,286046996.8,N
1577782995.3,286046999.2,N
1577783015.2,286046996.6,N
1577783035.0,286046999.6,N
1577783035.9,286046999.6,N
1577783055.8,286046997.0,N
1577783075.6,286046999.6,N
1577783095.4,286046999.4,N
1577783115.3,286046998.8,N
1577783135.1,286046998.1,N
1577783155.8,286047000.8,N
1577783175.7,286047000.7,N
1577783195.5,286047001.0,N
1577783215.4,286046998.4,N
1577783235.2,286046996.8,N
1577783255.0,286046999.2,N
1577783255.9,286046999.2,N
1577783275.8,286046996.5,N
1577783295.6,286046997.3,N
1577783315.4,286046997.3,N
1577783335.3,286046997.0,N
1577783355.1,286046998.0,N
1577783375.9,286046998.0,N
1577783395.7,286046995.1,Y
1577783415.5,286046996.7,P
1577783435.4,286046996.9,P
1577783455.2,286046998.7,N
1577783475.0,286046996.9,Y
1577783475.9,286046996.9,P
1577783495.8,286047000.5,N
1577783515.6,286047000.8,N
1577783535.5,286046999.7,N
1577783555.3,286047002.0,N
1577783575.1,286047002.4,N
1577783595.9,286047002.5,N
1577783615.7,286047002.3,N
1577783635.5,286047001.8,N
1577783655.4,286047001.9,N
1577783675.2,286047002.2,N
1577783695.1,286047001.4,N
1577783696.0,286047001.4,N
1577783715.8,286046999.7,N
1577783735.6,286047002.2,N
1577783755.5,286046999.7,N
1577783775.3,286047000.5,N
1577783795.1,286046999.8,N
1577783815.9,286047000.8,N
1577783835.7,286047000.2,N
1577783855.6,286046999.9,N
1577783875.4,286047001.0,N
1577783895.2,286046999.0,N
1577783915.1,286046999.8,N
1577783916.0,286046999.8,N
1577783935.8,286047002.7,N
1577783955.6,286046999.7,N
1577783975.5,286047002.8,N
1577783995.3,286047000.9,N
1577784015.2,286047000.9,N
1577784035.9,286047000.1,N
1577784055.7,286047002.8,N
1577784075.6,286047000.9,N
1577784095.4,286046999.9,N
1577784115.2,286047000.2,N
1577784135.1,286047002.4,N
1577784136.0,286047002.4,N
1577784155.8,286046998.2,N
1577784175.7,286046998.7,N
1577784195.5,286046998.4,N
1577784215.3,286047000.7,N
1577784235.2,286046998.1,N
1577784255.0,286047000.5,N
1577784255.9,286047000.5,N
1577784275.7,286047000.6,N
1577784295.6,286047000.7,N
1577784315.4,286047002.6,N
1577784335.3,286046999.8,N
1577784355.1,286047002.5,N
1577784356.0,286047002.5,N
1577784375.8,286047001.8,N
1577784395.7,286047001.2,N
1577784415.5,286046998.2,N
1577784435.3,286046998.1,N
1577784455.2,286047001.2,N
1577784475.0,286046998.9,N
1577784475.9,286046998.9,N
1577784495.8,286046999.3,N
1577784515.6,286046998.3,N
1577784535.4,286047000.3,N
1577784555.3,286046998.3,N
1577784575.1,286046998.6,N
1577784595.8,286046999.0,N
1577784615.7,286047001.0,N
1577784635.5,286047000.9,N
1577784655.4,286046998.2,N
1577784675.2,286046996.9,N
1577784695.0,286046998.4,N
1577784695.9,286046998.4,N
1577784715.8,286046999.6,N
1577784735.6,286046999.0,N
1577784755.4,286046997.0,N
1577784775.3,286046999.2,N
1577784795.1,286046996.6,N
1577784815.9,286046999.2,N
1577784835.7,286046997.6,N
1577784855.5,286046995.5,N
1577784875.4,286046994.9,Y
1577784895.2,286046995.1,P
1577784915.0,286046994.9,N
1577784916.0,286046994.9,N
1577784935.8,286046996.1,N
1577784955.6,286046995.2,N
1577784975.5,286046995.1,Y
1577784995.3,286046998.6,P
1577785015.1,286046998.6,N
1577785035.9,286046999.4,N
1577785055.7,286046996.2,N
1577785075.6,286046994.5,Y
1577785095.4,286046995.4,P
1577785115.2,286046995.8,P
1577785135.1,286046993.8,P
1577785136.0,286046993.8,Y
1577785155.8,286046998.7,P
1577785175.6,286046999.9,N
1577785195.5,286047000.6,N
1577785215.3,286046998.3,N
1577785235.2,286047000.4,N
1577785255.9,286047002.2,N
1577785275.7,286047002.2,N
1577785295.6,286047003.5,N
1577785315.4,286047003.1,N
1577785335.2,286047002.3,N
1577785355.1,286047002.7,N
1577785356.0,286047002.7,N
1577785375.8,286047002.5,N
1577785395.7,286046999.9,N
1577785415.5,286047002.5,N
1577785435.3,286047001.6,N
1577785455.2,286047002.2,N
1577785475.0,286047004.4,N
1577785475.9,286047004.4,N
1577785495.7,286047002.4,N
1577785515.6,286047004.0,N
1577785535.4,286047002.4,N
1577785555.3,286047002.0,N
1577785575.1,286047000.9,N
1577785576.0,286047000.9,N
1577785595.8,286047001.0,N
1577785615.7,286047002.2,N
1577785635.5,286047002.1,N
1577785655.3,286047003.8,N
1577785675.2,286047003.1,N
1577785695.0,286047003.1,N
1577785695.9,286047003.1,N
1577785715.8,286047004.3,Y
1577785735.6,286047000.8,P
1577785755.4,286046999.0,N
1577785775.3,286046999.4,N
1577785795.1,286046998.1,N
1577785815.8,286047000.9,N
1577785835.7,286047001.2,N
1577785855.5,286047002.6,N
1577785875.4,286047000.3,N
1577785895.2,286046999.9,N
1577785915.0,286047000.5,N
1577785915.9,286047000.5,N
1577785935.8,286047002.8,N
1577785955.6,286047000.8,N
1577785975.4,286046998.3,N
1577785995.3,286047000.0,N
1577786015.1,286047000.5,N
1577786035.9,286047000.6,N
1577786055.7,286046996.5,N
1577786075.5,286046999.5,N
1577786095.4,286047000.2,N
1577786115.2,286047002.2,N
1577786135.0,286047001.9,N
1577786136.0,286047001.9,N
1577786155.8,286047001.0,N
1577786175.6,286046996.8,N
1577786195.5,286046999.2,N
1577786215.3,286046999.6,N
1577786235.1,286046998.2,N
1577786255.9,286046999.0,N
1577786275.7,286046997.2,N
1577786295.5,286046999.2,N
1577786315.4,286046998.6,N
1577786335.2,286047002.4,N
1577786355.1,286047000.3,N
1577786356.0,286047000.3,N
1577786375.8,286047000.8,N
1577786395.6,286047000.3,N
